Regional Weather Roundup
Issued by NWS

Home | Current Version | Previous Version | Graphics & Text | Print | Product List | Glossary On
Versions: 1 2 3 4 5 6 7 8 9 10 11 12 13 14 15 16 17 18 19 20 21 22 23 24 25 26 27 28 29 30 31 32 33 34 35 36 37 38 39 40 41 42 43 44 45 46 47 48 49 50
000
ASUS43 KFSD 112110
RWRSD

WEATHER ROUNDUP FOR SOUTH DAKOTA
NATIONAL WEATHER SERVICE SIOUX FALLS SD
300 PM CST MON DEC 11 2017

NOTE: "FAIR" INDICATES FEW OR NO CLOUDS BELOW 12,000 FEET WITH NO
SIGNIFICANT WEATHER AND/OR OBSTRUCTIONS TO VISIBILITY.


SDZ001>005-009-010-012>017-112200-
NORTHWEST AND NORTH CENTRAL SOUTH DAKOTA

CITY           SKY/WX    TMP DP  RH WIND       PRES   REMARKS
BUFFALO          N/A     39  26  59 NW31G38   30.25S
FAITH            N/A     38  30  73 NW24G33   30.28S
MOBRIDGE       CLOUDY    40  26  57 N21G30    30.24R
$$

SDZ012>016-024>037-041>051-057-063-072>074-112200-
SOUTHWEST AND SOUTH CENTRAL SOUTH DAKOTA

CITY           SKY/WX    TMP DP  RH WIND       PRES   REMARKS
RAPID CTY ARPT SUNNY     44  21  40 NW31G44   30.31R
PIERRE         CLOUDY    37  34  89 N20       30.26R
CUSTER         SUNNY     39   1  20 NW10G22   30.28R
ELLSWORTH AFB  SUNNY     43  20  40 NW28G38   30.29S
PHILIP         CLOUDY    42  29  59 NW16G25   30.31R
PINE RIDGE     CLOUDY    42  24  49 N24G39    30.30F
SPEARFISH      FAIR      37  21  52 NW17G26   30.36S
WINNER         CLOUDY    40  32  73 NW25G35   30.26R
$$

SDZ004>011-016>023-039-040-112200-
NORTHEAST SOUTH DAKOTA

CITY           SKY/WX    TMP DP  RH WIND       PRES   REMARKS
ABERDEEN       SUNNY     29  19  66 N18G29    30.24R WCI  16
WATERTOWN      CLOUDY    27  21  78 N28G38    30.13R WCI  11
BROOKINGS      CLOUDY    29  22  75 N28G35    30.11R WCI  14
SISSETON         N/A     25  16  68 N28G35    30.18R WCI   9
$$

SDZ017-020-022-023-036>040-048>070-112200-
SOUTHEAST SOUTH DAKOTA

CITY           SKY/WX    TMP DP  RH WIND       PRES   REMARKS
SIOUX FALLS    CLOUDY    35  27  72 N31G39    30.11R WCI  22
HURON          MOSUNNY   35  25  66 N24G32    30.21R WCI  23
CHAMBERLAIN    CLOUDY    40  33  78 NW16      30.25R
MITCHELL       CLOUDY    38  30  73 N21       30.20R
YANKTON        CLOUDY    38  31  76 NW26G33   30.14R
$$

ABBREVIATIONS USED IN REMARKS
   TC - TEMPERATURE IN CELSIUS
  WCI - WIND CHILL INDEX
   HX - HEAT INDEX
  VSB - VISIBILITY





USA.gov is the U.S. government's official web portal to all federal, state and local government web resources and services.